This is the latest recevied weather packets stored in our database for station/object K3HW. If no packets are shown the sender has not sent any weather packets the latest 10 day(s).
| Time | Temp. | Humidity | Pressure | Rain* | Wind** | Luminosity | Snow |
|---|---|---|---|---|---|---|---|
| 1778154402 | 10° C | 92% | 1015.6 hPa | 0 mm | - | 38 W/m² | - |
| 1778154100 | 10° C | 92% | 1015.6 hPa | 0 mm | - | 31 W/m² | - |
| 1778153797 | 10° C | 92% | 1015.4 hPa | 0 mm | - | 26 W/m² | - |
| 1778153494 | 10° C | 92% | 1015.4 hPa | 0 mm | - | 20 W/m² | - |
| 1778153192 | 10° C | 92% | 1015.2 hPa | 0 mm | - | 17 W/m² | - |
| 1778152888 | 10° C | 92% | 1014.9 hPa | 0 mm | - | 14 W/m² | - |
| 1778152585 | 10° C | 92% | 1014.9 hPa | 0 mm | - | 12 W/m² | - |
| 1778152282 | 10° C | 92% | 1015 hPa | 0 mm | - | 10 W/m² | - |
| 1778151978 | 10° C | 92% | 1015.1 hPa | 0 mm | - | 8 W/m² | - |
| 1778151675 | 10° C | 92% | 1014.9 hPa | 0 mm | - | 8 W/m² | - |
| 1778151372 | 10° C | 92% | 1014.9 hPa | 0 mm | - | 10 W/m² | - |
| 1778151068 | 10° C | 92% | 1014.7 hPa | 0 mm | - | 7 W/m² | - |
| 1778150766 | 10° C | 92% | 1014.7 hPa | 0 mm | - | 5 W/m² | - |
| 1778150462 | 10° C | 92% | 1014.5 hPa | 1.27 mm | - | 4 W/m² | - |
| 1778150158 | 10° C | 92% | 1014.6 hPa | 1.27 mm | - | 4 W/m² | - |
| 1778149855 | 10° C | 92% | 1014.4 hPa | 0 mm | - | 5 W/m² | - |
| 1778149551 | 10° C | 92% | 1014.3 hPa | 0 mm | - | 4 W/m² | - |
| 1778149247 | 10° C | 92% | 1014.1 hPa | 0 mm | - | 3 W/m² | - |
| 1778148943 | 10° C | 92% | 1014.6 hPa | 0 mm | - | 3 W/m² | - |
| 1778148639 | 10° C | 92% | 1014.3 hPa | 0 mm | - | 2 W/m² | - |
| 1778148337 | 10° C | 92% | 1014.1 hPa | 1.78 mm | - | 1 W/m² | - |
| 1778148035 | 10° C | 92% | 1014 hPa | 1.78 mm | - | 1 W/m² | - |
| 1778147732 | 10° C | 92% | 1014 hPa | 0 mm | - | 1 W/m² | - |
| 1778147429 | 10° C | 92% | 1014 hPa | 1.78 mm | - | 0 W/m² | - |
| 1778147125 | 10° C | 92% | 1014.1 hPa | 1.78 mm | - | 0 W/m² | - |
* Rain latest hour (hover to see other rain measurements)
** Current wind speed in m/s (hover to see current wind gust speed)